{"data":{"norad_id":68346,"intl_designator":"2026-059AB","name":"STARLINK-37169","alt_names":[],"object_type":"PAYLOAD","status":"ACTIVE","operator":null,"country":"US","launch_date":"2026-03-22","launch_site_code":"AFETR","launch_vehicle":null,"mission":null,"orbit_class":"UNKNOWN","rcs_meters":null,"size_class":null,"mass_kg":null,"dimensions":null,"purposes":["comms"],"wikipedia_slug":null,"has_3d_model":false,"image_url":null,"decayed_at":null,"tle_current":{"epoch":"2026-05-25T04:00:03.998880Z","epoch_age_seconds":63849,"freshness":"FRESH","line1":"1 68346U 26059AB  26145.16671295 -.00011675  00000+0 -33497-3 0  9994","line2":"2 68346  53.1588 349.1516 0001047  58.6357 138.8170 15.34397721  5920","mean_motion":15.34397721,"eccentricity":0.0001047,"inclination_deg":53.1588,"raan_deg":349.1516,"arg_perigee_deg":58.6357,"mean_anomaly_deg":138.817,"bstar":-0.00033497,"rev_number":592,"period_min":93.847897470906,"perigee_km":461.99377720141,"apogee_km":463.42625056612,"semimajor_km":6840.8470138838,"source":"CELESTRAK","updated_at":"2026-05-25T13:38:21.926923Z"}}}